Regional Weather Roundup
Issued by NWS

Home | Current Version | Previous Version | Graphics & Text | Print | Product List | Glossary Off
Versions: 1 2 3 4 5 6 7 8 9 10 11 12 13 14 15 16 17 18 19 20 21 22 23 24 25 26 27 28 29 30 31 32 33 34 35 36 37 38 39 40 41 42 43 44 45 46 47 48 49 50

000
ASUS43 KTOP 221659
RWRKS

WEATHER ROUNDUP FOR KANSAS
NATIONAL WEATHER SERVICE GOODLAND KS
1100 AM CST WED FEB 22 2017

NOTE:  "FAIR" INDICATES FEW OR NO CLOUDS BELOW 12,000 FEET WITH NO
SIGNIFICANT WEATHER AND/OR OBSTRUCTIONS TO VISIBILITY.

KSZ001>006-013>018-027>032-041>047-221800-
NORTHWEST KANSAS

CITY           SKY/WX    TMP DP  RH WIND       PRES   REMARKS
GOODLAND       SUNNY     57  27  31 N17       29.86S
HAYS           PTSUNNY   61  32  33 NW10      29.80R
HILL CITY      SUNNY     66  35  31 N13       29.80F
RUSSELL        CLOUDY    62  28  27 NW9       29.77S
$$

KSZ061>065-074>080-084>089-221800-
SOUTHWEST KANSAS

CITY           SKY/WX    TMP DP  RH WIND       PRES   REMARKS
DODGE CITY     SUNNY     67  28  23 N17       29.83F
ELKHART          N/A     70  31  23 W7          N/A
GARDEN CITY    SUNNY     66  29  24 N20       29.85F
GREAT BEND     SUNNY     67  28  23 NW13      29.79F
LIBERAL        SUNNY     72  28  20 W9        29.87F
$$

KSZ066>073-081>083-090>101-221800-
SOUTHEAST KANSAS

CITY           SKY/WX    TMP DP  RH WIND       PRES   REMARKS
CHANUTE        SUNNY     68  43  40 S18G25    29.82R
COFFEYVILLE    SUNNY     66  49  54 S16       29.84F
HUTCHINSON     MOSUNNY   66  35  31 W12       29.76F
MEDICINE LODGE   N/A     63  36  36 W3        29.80R
NEWTON         MOSUNNY   64  42  44 SW15      29.77S
PARSONS        SUNNY     68  47  46 S13       29.83F
WICHITA INTL   MOSUNNY   65  42  43 S14       29.77F
WICHITA JABRA  SUNNY     68  39  34 S14G23    29.76F
WINFIELD       SUNNY     68  42  38 SW10      29.82S
$$

KSZ007>012-019>026-033>040-048>060-102>105-221800-
NORTHEAST KANSAS

CITY           SKY/WX    TMP DP  RH WIND       PRES   REMARKS
CONCORDIA      CLOUDY    64  32  30 W13       29.72R
EMPORIA        SUNNY     72  35  25 SW22G28   29.71F
LAWRENCE       CLOUDY    69  36  29 S10       29.73F
MANHATTAN      CLOUDY    62  37  39 SW16      29.72F
OLATHE IND     MOSUNNY   69  43  38 S14       29.75F
OLATHE EXE     MOSUNNY   65  47  52 SW13      29.76F
SALINA         CLOUDY    66  34  30 NW7       29.75S
TOPEKA BILLARD MOSUNNY   66  38  35 VRB7      29.73S
TOPEKA FORBES  CLOUDY    70  37  29 SW13G22   29.72F
$$



USA.gov is the U.S. government's official web portal to all federal, state and local government web resources and services.